STARLINK-11241 [DTC]

Last updated on Tue Oct 01 2024 00:02:04 GMT+0000 (Coordinated Universal Time)

1 60936U 24155N 24274.58334491 -.00012035 00000+0 -94607-4 0 9999 2 60936 53.1579 50.0935 0000935 79.8755 330.8623 15.69714303 5960

Satellite not in orbit

STARLINK-11241 [DTC]